Date String (YYYY-MM-DD hh:mm:ss) UTC,Instrument flags,Ambient pressure (hPa),Sample flow (lpm),Bypass flow (lpm),Sample temperature (°C),Ambient temperature (°C),ASC tube jacket temperature (°C),LED temperature (°C),Box temperature (°C),Sample RH (%),Span deviation,Mass concentration (μg/m³),Mass concentration (μg/m³),Mass concentration (μg/m³)
DateTimeUTC,F1_M11,P_M11,Q1_M11,Q2_M11,T1_M11,T2_M11,T3_M11,T4_M11,T5_M11,U1_M11,ZSPAN_M11,X2_M11,X0_M11,X1_M11
2023-01-11 17:00:00,,0817.0,5.00,0.00,22.7,21.4,00.0,31.6,24.5,20.5,0000.0,0004.35,0006.78,0004.19
2023-01-11 17:01:00,,0817.1,5.00,0.00,22.7,21.3,00.0,31.6,24.4,20.5,0000.0,0004.46,0006.21,0004.29
2023-01-11 17:02:00,,0817.1,4.99,0.00,22.7,21.3,00.0,31.6,24.4,20.4,0000.0,0004.58,0006.44,0004.41
2023-01-11 17:03:00,,0817.1,5.01,0.00,22.7,21.2,00.0,31.6,24.4,20.4,0000.0,0004.70,0006.64,0004.52
2023-01-11 17:04:00,,0817.1,5.00,0.00,22.6,21.1,00.0,31.5,24.3,20.3,0000.0,0004.82,0006.79,0004.65
2023-01-11 17:05:00,,0817.1,5.00,0.00,22.6,21.1,00.0,31.5,24.3,20.3,0000.0,0004.96,0007.05,0004.77
2023-01-11 17:06:00,,0817.1,5.00,0.00,22.6,21.1,00.0,31.5,24.3,20.3,0000.0,0005.07,0007.12,0004.89
2023-01-11 17:07:00,,0817.1,5.00,0.00,22.6,21.0,00.0,31.5,24.3,20.3,0000.0,0005.19,0007.31,0005.01
2023-01-11 17:08:00,,0817.2,5.01,0.00,22.6,21.0,00.0,31.5,24.3,20.4,0000.0,0005.27,0007.34,0005.11
2023-01-11 17:09:00,,0817.2,5.00,0.00,22.5,21.0,00.0,31.5,24.3,20.4,0000.0,0005.38,0007.41,0005.22
2023-01-11 17:10:00,,0817.3,5.00,0.00,22.5,21.2,00.0,31.5,24.3,20.4,0000.0,0005.47,0007.46,0005.32
2023-01-11 17:11:00,,0817.3,5.00,0.00,22.6,22.1,00.0,31.4,24.5,20.3,-000.1,0005.55,0007.53,0005.40
2023-01-11 17:12:00,,0817.4,5.00,0.00,22.7,22.9,00.0,31.5,24.7,20.3,0000.0,0005.58,0007.53,0005.45
2023-01-11 17:13:00,,0817.4,5.00,0.00,22.8,22.8,00.0,31.5,24.8,20.2,0000.0,0005.63,0007.53,0005.50
2023-01-11 17:14:00,,0817.3,5.01,0.00,22.8,22.5,00.0,31.5,24.7,20.2,0000.0,0005.71,0007.57,0005.59
2023-01-11 17:15:00,,0817.4,5.01,0.00,22.8,22.2,00.0,31.6,24.7,20.3,0000.0,0005.82,0007.70,0005.68
2023-01-11 17:16:00,,0817.4,5.00,0.00,22.8,22.0,00.0,31.6,24.6,20.3,0000.0,0005.91,0007.78,0005.80
2023-01-11 17:17:00,,0817.4,5.00,0.00,22.8,21.9,00.0,31.6,24.6,20.4,0000.0,0006.00,0007.84,0005.88
2023-01-11 17:18:00,,0817.4,5.00,0.00,22.8,21.7,00.0,31.6,24.6,20.5,0000.0,0006.09,0007.94,0005.97
2023-01-11 17:19:00,,0817.5,5.00,0.00,22.8,21.6,00.0,31.6,24.5,20.4,0000.0,0006.20,0008.06,0006.07
2023-01-11 17:20:00,,0817.5,5.02,0.00,22.8,21.5,00.0,31.6,24.5,20.3,0000.0,0006.30,0008.15,0006.18
2023-01-11 17:21:00,,0817.5,5.00,0.00,22.8,21.4,00.0,31.6,24.5,20.4,0000.0,0006.42,0008.30,0006.27
2023-01-11 17:22:00,,0817.4,5.01,0.00,22.8,21.4,00.0,31.6,24.5,20.4,0000.0,0006.52,0008.52,0006.36
2023-01-11 17:23:00,,0817.5,5.01,0.00,22.7,21.4,00.0,31.6,24.5,20.4,0000.0,0006.69,0008.68,0006.52
2023-01-11 17:24:00,,0817.5,4.99,0.00,22.7,21.3,00.0,31.6,24.5,20.3,0000.0,0006.96,0008.88,0006.80
2023-01-11 17:25:00,,0817.5,5.00,0.00,22.7,21.3,00.0,31.6,24.5,20.3,0000.0,0007.16,0009.01,0007.01
2023-01-11 17:26:00,,0817.5,5.00,0.00,22.7,21.3,00.0,31.6,24.5,20.3,0000.0,0007.34,0009.11,0007.21
2023-01-11 17:27:00,,0817.5,4.99,0.00,22.7,21.3,00.0,31.6,24.5,20.3,0000.0,0007.52,0009.23,0007.40
2023-01-11 17:28:00,,0817.5,4.99,0.00,22.7,21.3,00.0,31.6,24.5,20.3,0000.1,0007.76,0009.46,0007.64
2023-01-11 17:29:00,,0817.5,5.01,0.00,22.7,21.2,00.0,31.6,24.4,20.3,0001.5,0008.05,0009.79,0007.93
2023-01-11 17:30:00,,0817.5,5.00,0.00,22.7,21.2,00.0,31.6,24.4,20.3,0001.3,0008.31,0010.02,0008.18
2023-01-11 17:31:00,,0817.5,5.00,0.00,22.7,21.2,00.0,31.6,24.4,20.4,0000.9,0008.53,0010.22,0008.39
2023-01-11 17:32:00,,0817.6,5.01,0.00,22.6,21.1,00.0,31.6,24.4,20.4,0001.1,0008.75,0010.41,0008.60
2023-01-11 17:33:00,,0817.6,5.01,0.00,22.6,21.1,00.0,31.5,24.4,20.4,0001.1,0008.94,0010.43,0008.80
2023-01-11 17:34:00,,0817.6,5.00,0.00,22.6,21.1,00.0,31.5,24.4,20.5,0000.7,0009.11,0010.56,0008.96
2023-01-11 17:35:00,,0817.6,4.99,0.00,22.6,21.1,00.0,31.5,24.3,20.5,0000.5,0009.16,0010.60,0009.01
2023-01-11 17:36:00,,0817.6,5.01,0.00,22.6,21.1,00.0,31.5,24.3,20.6,0000.2,0009.24,0010.69,0009.09
2023-01-11 17:37:00,,0817.5,4.99,0.00,22.6,21.0,00.0,31.5,24.3,20.6,0000.3,0009.30,0010.83,0009.13
2023-01-11 17:38:00,,0817.6,5.00,0.00,22.6,21.0,00.0,31.5,24.3,20.6,0000.0,0009.34,0010.86,0009.15
2023-01-11 17:39:00,,0817.6,5.00,0.00,22.6,21.0,00.0,31.5,24.3,20.6,-000.2,0009.31,0010.78,0009.13
2023-01-11 17:40:00,,0817.7,5.00,0.00,22.6,21.0,00.0,31.5,24.3,20.6,-000.5,0009.24,0010.61,0009.07
2023-01-11 17:41:00,,0817.7,5.00,0.00,22.5,21.2,00.0,31.4,24.3,20.7,-000.7,0009.19,0010.55,0009.02
2023-01-11 17:42:00,,0817.8,5.00,0.00,22.6,22.1,00.0,31.4,24.5,20.6,-000.5,0009.24,0010.66,0009.05
2023-01-11 17:43:00,,0817.8,4.99,0.00,22.7,22.8,00.0,31.4,24.7,20.5,-000.6,0009.25,0010.64,0009.08
2023-01-11 17:44:00,,0817.8,4.99,0.00,22.8,22.6,00.0,31.5,24.8,20.4,-000.4,0009.30,0010.70,0009.12
2023-01-11 17:45:00,,0817.7,5.01,0.00,22.8,22.3,00.0,31.5,24.7,20.4,-000.3,0009.28,0010.72,0009.09
2023-01-11 17:46:00,,0817.7,5.01,0.00,22.8,22.1,00.0,31.6,24.7,20.4,-000.4,0009.24,0010.72,0009.05
2023-01-11 17:47:00,,0817.7,5.00,0.00,22.8,21.9,00.0,31.6,24.7,20.4,-000.5,0009.21,0010.74,0009.02
2023-01-11 17:48:00,,0817.7,5.00,0.00,22.8,21.8,00.0,31.6,24.6,20.4,-000.6,0009.16,0010.61,0008.99
2023-01-11 17:49:00,,0817.6,4.99,0.00,22.8,21.7,00.0,31.6,24.6,20.4,-000.5,0009.16,0010.61,0008.99
2023-01-11 17:50:00,,0817.6,5.00,0.00,22.8,21.6,00.0,31.6,24.6,20.5,-000.2,0009.16,0010.65,0008.99
2023-01-11 17:51:00,,0817.7,5.00,0.00,22.8,21.5,00.0,31.6,24.5,20.6,0000.0,0009.15,0010.65,0008.98
2023-01-11 17:52:00,,0817.7,5.01,0.00,22.8,21.4,00.0,31.6,24.5,20.6,-000.1,0009.09,0010.59,0008.92
2023-01-11 17:53:00,,0817.7,5.01,0.00,22.8,21.4,00.0,31.6,24.5,20.5,-000.3,0008.97,0010.41,0008.83
2023-01-11 17:54:00,,0817.7,5.00,0.00,22.8,21.4,00.0,31.6,24.5,20.5,-000.3,0008.85,0010.29,0008.72
2023-01-11 17:55:00,,0817.7,4.99,0.00,22.8,21.4,00.0,31.6,24.5,20.5,-000.6,0008.74,0010.18,0008.61
2023-01-11 17:56:00,,0817.8,5.00,0.00,22.7,21.3,00.0,31.6,24.5,20.6,-000.7,0008.66,0010.09,0008.54
2023-01-11 17:57:00,,0817.7,4.99,0.00,22.7,21.3,00.0,31.6,24.5,20.6,-000.7,0008.59,0010.00,0008.47
2023-01-11 17:58:00,,0817.7,5.01,0.00,22.7,21.3,00.0,31.6,24.5,20.8,-000.7,0008.48,0009.86,0008.37
2023-01-11 17:59:00,,0817.8,5.01,0.00,22.7,21.2,00.0,31.6,24.4,20.6,-000.6,0008.38,0009.73,0008.27
